Time,TemperatureF,DewpointF,PressureIn,WindDirection,WindDirectionDegrees,WindSpeedMPH,WindSpeedGustMPH,Humidity,HourlyPrecipIn,Conditions,Clouds,dailyrainin,SoftwareType,DateUTC
2013-01-13 00:04:00,42.5,35.1,29.88,North,1,13.0,23.0,75,0.00,,,0.00,Wunderground v.1.15,2013-01-13 06:04:00,
2013-01-13 00:10:00,42.5,35.5,29.89,North,349,11.0,11.0,76,0.00,,,0.00,Wunderground v.1.15,2013-01-13 06:10:00,
2013-01-13 00:16:00,42.3,34.6,29.89,NNW,345,11.0,23.0,74,0.00,,,0.00,Wunderground v.1.15,2013-01-13 06:16:00,
2013-01-13 00:22:00,42.0,34.3,29.89,North,356,12.0,13.0,74,0.00,,,0.00,Wunderground v.1.15,2013-01-13 06:22:00,
2013-01-13 00:28:00,41.8,34.1,29.89,NNW,332,11.0,23.0,74,0.00,,,0.00,Wunderground v.1.15,2013-01-13 06:28:00,
2013-01-13 00:34:00,41.5,33.8,29.89,NNW,333,12.0,23.0,74,0.00,,,0.00,Wunderground v.1.15,2013-01-13 06:34:00,
2013-01-13 00:40:00,41.1,33.1,29.89,NW,322,13.0,23.0,73,0.00,,,0.00,Wunderground v.1.15,2013-01-13 06:40:00,
2013-01-13 00:46:00,40.8,32.8,29.89,NNW,337,13.0,23.0,73,0.00,,,0.00,Wunderground v.1.15,2013-01-13 06:46:00,
2013-01-13 00:52:00,40.6,32.6,29.89,NNW,328,13.0,15.0,73,0.00,,,0.00,Wunderground v.1.15,2013-01-13 06:52:00,
2013-01-13 00:58:00,40.4,32.8,29.89,NNW,337,12.0,23.0,74,0.00,,,0.00,Wunderground v.1.15,2013-01-13 06:58:00,
2013-01-13 01:04:00,40.2,32.6,29.89,NNW,347,13.0,23.0,74,0.00,,,0.00,Wunderground v.1.15,2013-01-13 07:04:00,
2013-01-13 01:10:00,40.1,32.5,29.89,North,6,13.0,23.0,74,0.00,,,0.00,Wunderground v.1.15,2013-01-13 07:10:00,
2013-01-13 01:16:00,40.0,32.7,29.89,North,360,13.0,23.0,75,0.00,,,0.00,Wunderground v.1.15,2013-01-13 07:16:00,
2013-01-13 01:22:00,39.9,32.6,29.90,NNE,33,12.0,23.0,75,0.00,,,0.00,Wunderground v.1.15,2013-01-13 07:22:00,
2013-01-13 01:28:00,39.9,32.6,29.90,North,354,11.0,23.0,75,0.00,,,0.00,Wunderground v.1.15,2013-01-13 07:28:00,
2013-01-13 01:34:00,39.9,32.6,29.91,NNW,329,11.0,23.0,75,0.00,,,0.00,Wunderground v.1.15,2013-01-13 07:34:00,
2013-01-13 01:40:00,39.8,32.5,29.91,NNW,342,11.0,23.0,75,0.00,,,0.00,Wunderground v.1.15,2013-01-13 07:40:00,
2013-01-13 01:46:00,39.5,32.2,29.91,NNW,335,11.0,23.0,75,0.00,,,0.00,Wunderground v.1.15,2013-01-13 07:46:00,
2013-01-13 01:52:00,39.3,32.4,29.91,North,352,13.0,23.0,76,0.00,,,0.00,Wunderground v.1.15,2013-01-13 07:52:00,
2013-01-13 01:58:00,39.2,31.9,29.91,NNE,16,12.0,23.0,75,0.00,,,0.00,Wunderground v.1.15,2013-01-13 07:58:00,
2013-01-13 02:04:00,39.1,32.2,29.91,North,8,12.0,23.0,76,0.00,,,0.00,Wunderground v.1.15,2013-01-13 08:04:00,
2013-01-13 02:10:00,39.0,31.7,29.92,NNW,331,11.0,11.0,75,0.00,,,0.00,Wunderground v.1.15,2013-01-13 08:10:00,
2013-01-13 02:16:00,38.7,31.8,29.93,North,356,10.0,23.0,76,0.00,,,0.00,Wunderground v.1.15,2013-01-13 08:16:00,
2013-01-13 02:22:00,38.5,31.6,29.92,NNW,329,10.0,23.0,76,0.00,,,0.00,Wunderground v.1.15,2013-01-13 08:22:00,
2013-01-13 02:28:00,38.4,31.5,29.93,NW,308,10.0,23.0,76,0.00,,,0.00,Wunderground v.1.15,2013-01-13 08:28:00,
2013-01-13 02:34:00,38.3,31.4,29.93,NNE,15,10.0,23.0,76,0.00,,,0.00,Wunderground v.1.15,2013-01-13 08:34:00,
2013-01-13 02:40:00,38.1,31.2,29.93,NNW,345,11.0,23.0,76,0.00,,,0.00,Wunderground v.1.15,2013-01-13 08:40:00,
2013-01-13 02:46:00,37.8,30.9,29.93,NNW,335,12.0,23.0,76,0.00,,,0.00,Wunderground v.1.15,2013-01-13 08:46:00,
2013-01-13 02:52:00,37.7,30.8,29.94,NNW,329,12.0,23.0,76,0.00,,,0.00,Wunderground v.1.15,2013-01-13 08:52:00,
2013-01-13 02:58:00,37.6,30.4,29.94,West,270,12.0,23.0,75,0.00,,,0.00,Wunderground v.1.15,2013-01-13 08:58:00,
2013-01-13 03:04:00,37.5,30.6,29.94,NW,316,13.0,23.0,76,0.00,,,0.00,Wunderground v.1.15,2013-01-13 09:04:00,
2013-01-13 03:10:00,37.3,30.4,29.95,NNW,339,13.0,13.0,76,0.00,,,0.00,Wunderground v.1.15,2013-01-13 09:10:00,
2013-01-13 03:16:00,37.3,30.7,29.94,NNW,339,11.0,23.0,77,0.00,,,0.00,Wunderground v.1.15,2013-01-13 09:16:00,
2013-01-13 03:22:00,37.3,30.7,29.94,NNW,333,11.0,11.0,77,0.00,,,0.00,Wunderground v.1.15,2013-01-13 09:22:00,
2013-01-13 03:28:00,37.2,30.3,29.95,NNW,348,12.0,23.0,76,0.00,,,0.00,Wunderground v.1.15,2013-01-13 09:28:00,
2013-01-13 03:34:00,37.2,30.7,29.95,WNW,293,11.0,23.0,77,0.00,,,0.00,Wunderground v.1.15,2013-01-13 09:34:00,
2013-01-13 03:40:00,37.2,30.3,29.94,NW,321,11.0,23.0,76,0.00,,,0.00,Wunderground v.1.15,2013-01-13 09:40:00,
2013-01-13 03:46:00,37.1,30.2,29.94,NNW,341,11.0,23.0,76,0.00,,,0.00,Wunderground v.1.15,2013-01-13 09:46:00,
2013-01-13 03:52:00,37.1,30.6,29.95,North,352,10.0,23.0,77,0.00,,,0.00,Wunderground v.1.15,2013-01-13 09:52:00,
2013-01-13 03:58:00,37.1,30.6,29.95,NW,307,9.0,23.0,77,0.00,,,0.00,Wunderground v.1.15,2013-01-13 09:58:00,
2013-01-13 04:04:00,37.0,30.1,29.96,NNE,25,10.0,23.0,76,0.00,,,0.00,Wunderground v.1.15,2013-01-13 10:04:00,
2013-01-13 04:10:00,36.9,30.0,29.96,NE,53,11.0,23.0,76,0.00,,,0.00,Wunderground v.1.15,2013-01-13 10:10:00,
2013-01-13 04:16:00,36.8,29.6,29.96,NNW,332,11.0,23.0,75,0.00,,,0.00,Wunderground v.1.15,2013-01-13 10:16:00,
2013-01-13 04:22:00,36.7,29.5,29.96,NW,325,12.0,23.0,75,0.00,,,0.00,Wunderground v.1.15,2013-01-13 10:22:00,
2013-01-13 04:28:00,36.6,29.4,29.96,NNW,331,12.0,23.0,75,0.00,,,0.00,Wunderground v.1.15,2013-01-13 10:28:00,
2013-01-13 04:34:00,36.6,29.4,29.96,NNW,328,11.0,23.0,75,0.00,,,0.00,Wunderground v.1.15,2013-01-13 10:34:00,
2013-01-13 04:40:00,36.6,29.4,29.96,NNE,16,11.0,23.0,75,0.00,,,0.00,Wunderground v.1.15,2013-01-13 10:40:00,
2013-01-13 04:46:00,36.5,29.7,29.97,North,8,11.0,23.0,76,0.00,,,0.00,Wunderground v.1.15,2013-01-13 10:46:00,
2013-01-13 04:52:00,36.4,29.2,29.97,North,351,12.0,23.0,75,0.00,,,0.00,Wunderground v.1.15,2013-01-13 10:52:00,
2013-01-13 04:58:00,36.3,29.1,29.97,West,266,12.0,23.0,75,0.00,,,0.00,Wunderground v.1.15,2013-01-13 10:58:00,
2013-01-13 05:04:00,36.2,28.7,29.97,North,9,12.0,23.0,74,0.00,,,0.00,Wunderground v.1.15,2013-01-13 11:04:00,
2013-01-13 05:10:00,36.2,28.7,29.97,North,352,12.0,23.0,74,0.00,,,0.00,Wunderground v.1.15,2013-01-13 11:10:00,
2013-01-13 05:16:00,36.1,28.6,29.98,NW,310,12.0,23.0,74,0.00,,,0.00,Wunderground v.1.15,2013-01-13 11:16:00,
2013-01-13 05:22:00,36.1,28.6,29.98,NNE,13,12.0,23.0,74,0.00,,,0.00,Wunderground v.1.15,2013-01-13 11:22:00,
2013-01-13 05:28:00,36.1,28.9,29.99,NNW,345,11.0,23.0,75,0.00,,,0.00,Wunderground v.1.15,2013-01-13 11:28:00,
2013-01-13 05:34:00,36.1,28.9,29.99,NW,305,9.0,23.0,75,0.00,,,0.00,Wunderground v.1.15,2013-01-13 11:34:00,
2013-01-13 05:40:00,36.0,28.8,29.99,NNW,331,11.0,11.0,75,0.00,,,0.00,Wunderground v.1.15,2013-01-13 11:40:00,
2013-01-13 05:46:00,36.0,28.8,29.99,NNW,332,11.0,23.0,75,0.00,,,0.00,Wunderground v.1.15,2013-01-13 11:46:00,
2013-01-13 05:52:00,35.9,28.7,30.00,NNW,348,10.0,23.0,75,0.00,,,0.00,Wunderground v.1.15,2013-01-13 11:52:00,
2013-01-13 05:58:00,35.7,28.6,30.00,North,351,10.0,23.0,75,0.00,,,0.00,Wunderground v.1.15,2013-01-13 11:58:00,
2013-01-13 06:04:00,35.7,28.9,30.01,NNW,330,9.0,10.0,76,0.00,,,0.00,Wunderground v.1.15,2013-01-13 12:04:00,
2013-01-13 06:10:00,35.6,28.5,30.01,North,359,9.0,11.0,75,0.00,,,0.00,Wunderground v.1.15,2013-01-13 12:10:00,
2013-01-13 06:16:00,35.5,28.4,30.01,NNW,347,11.0,15.0,75,0.00,,,0.00,Wunderground v.1.15,2013-01-13 12:16:00,
2013-01-13 06:22:00,35.5,28.7,30.01,North,352,10.0,11.0,76,0.00,,,0.00,Wunderground v.1.15,2013-01-13 12:22:00,
2013-01-13 06:28:00,35.5,28.7,30.02,NNW,339,10.0,12.0,76,0.00,,,0.00,Wunderground v.1.15,2013-01-13 12:28:00,
2013-01-13 06:34:00,35.3,28.5,30.02,NW,316,10.0,10.0,76,0.00,,,0.00,Wunderground v.1.15,2013-01-13 12:34:00,
2013-01-13 06:40:00,35.2,28.4,30.03,North,4,9.0,9.0,76,0.00,,,0.00,Wunderground v.1.15,2013-01-13 12:40:00,
2013-01-13 06:46:00,35.1,28.3,30.03,NW,314,9.0,10.0,76,0.00,,,0.00,Wunderground v.1.15,2013-01-13 12:46:00,
2013-01-13 06:52:00,34.9,28.4,30.04,NW,309,10.0,10.0,77,0.00,,,0.00,Wunderground v.1.15,2013-01-13 12:52:00,
2013-01-13 06:58:00,34.9,28.4,30.05,NW,321,10.0,19.0,77,0.00,,,0.00,Wunderground v.1.15,2013-01-13 12:58:00,
2013-01-13 07:04:00,34.9,28.4,30.05,NNE,16,10.0,19.0,77,0.00,,,0.00,Wunderground v.1.15,2013-01-13 13:04:00,
2013-01-13 07:10:00,34.8,28.0,30.05,NNE,13,10.0,19.0,76,0.00,,,0.00,Wunderground v.1.15,2013-01-13 13:10:00,
2013-01-13 07:16:00,34.6,27.8,30.06,NNW,339,10.0,19.0,76,0.00,,,0.00,Wunderground v.1.15,2013-01-13 13:16:00,
2013-01-13 07:22:00,34.4,27.9,30.06,NNW,337,10.0,19.0,77,0.00,,,0.00,Wunderground v.1.15,2013-01-13 13:22:00,
2013-01-13 07:28:00,34.1,27.6,30.07,NNW,332,10.0,19.0,77,0.00,,,0.00,Wunderground v.1.15,2013-01-13 13:28:00,
2013-01-13 07:34:00,34.0,27.5,30.07,NNE,25,10.0,19.0,77,0.00,,,0.00,Wunderground v.1.15,2013-01-13 13:34:00,
2013-01-13 07:40:00,33.9,27.8,30.08,NW,316,9.0,9.0,78,0.00,,,0.00,Wunderground v.1.15,2013-01-13 13:40:00,
2013-01-13 07:46:00,33.7,27.6,30.08,NNW,331,9.0,19.0,78,0.00,,,0.00,Wunderground v.1.15,2013-01-13 13:46:00,
2013-01-13 07:52:00,33.5,27.4,30.09,NNW,345,9.0,19.0,78,0.00,,,0.00,Wunderground v.1.15,2013-01-13 13:52:00,
2013-01-13 07:58:00,33.1,27.0,30.09,NNW,327,9.0,19.0,78,0.00,,,0.00,Wunderground v.1.15,2013-01-13 13:58:00,
2013-01-13 08:04:00,32.8,26.7,30.09,North,353,9.0,19.0,78,0.00,,,0.00,Wunderground v.1.15,2013-01-13 14:04:00,
2013-01-13 08:10:00,32.6,26.5,30.10,North,360,9.0,19.0,78,0.00,,,0.00,Wunderground v.1.15,2013-01-13 14:10:00,
2013-01-13 08:16:00,32.6,26.5,30.10,NW,314,10.0,19.0,78,0.00,,,0.00,Wunderground v.1.15,2013-01-13 14:16:00,
2013-01-13 08:22:00,32.6,26.5,30.11,NNW,328,9.0,19.0,78,0.00,,,0.00,Wunderground v.1.15,2013-01-13 14:22:00,
2013-01-13 08:28:00,32.7,26.0,30.11,NW,325,10.0,19.0,76,0.00,,,0.00,Wunderground v.1.15,2013-01-13 14:28:00,
2013-01-13 08:34:00,32.4,25.4,30.11,NW,304,11.0,20.0,75,0.00,,,0.00,Wunderground v.1.15,2013-01-13 14:34:00,
2013-01-13 08:40:00,32.2,25.5,30.11,NW,309,12.0,12.0,76,0.00,,,0.00,Wunderground v.1.15,2013-01-13 14:40:00,
2013-01-13 08:46:00,32.3,25.6,30.12,NNE,25,11.0,19.0,76,0.00,,,0.00,Wunderground v.1.15,2013-01-13 14:46:00,
2013-01-13 08:52:00,32.6,25.6,30.13,NW,323,10.0,11.0,75,0.00,,,0.00,Wunderground v.1.15,2013-01-13 14:52:00,
2013-01-13 08:58:00,32.7,25.6,30.13,NNW,335,10.0,19.0,75,0.00,,,0.00,Wunderground v.1.15,2013-01-13 14:58:00,
2013-01-13 09:04:00,32.7,25.6,30.13,North,351,11.0,19.0,75,0.00,,,0.00,Wunderground v.1.15,2013-01-13 15:04:00,
2013-01-13 09:10:00,33.1,25.7,30.13,NNW,337,11.0,19.0,74,0.00,,,0.00,Wunderground v.1.15,2013-01-13 15:10:00,
2013-01-13 09:16:00,33.0,25.3,30.14,NW,304,11.0,19.0,73,0.00,,,0.00,Wunderground v.1.15,2013-01-13 15:16:00,
2013-01-13 09:22:00,32.9,25.5,30.14,NW,325,11.0,19.0,74,0.00,,,0.00,Wunderground v.1.15,2013-01-13 15:22:00,
2013-01-13 09:28:00,33.0,25.6,30.14,NW,318,11.0,19.0,74,0.00,,,0.00,Wunderground v.1.15,2013-01-13 15:28:00,
2013-01-13 09:34:00,33.3,25.9,30.14,NW,325,12.0,19.0,74,0.00,,,0.00,Wunderground v.1.15,2013-01-13 15:34:00,
2013-01-13 09:40:00,33.5,25.8,30.14,NNE,13,11.0,11.0,73,0.00,,,0.00,Wunderground v.1.15,2013-01-13 15:40:00,
2013-01-13 09:46:00,33.3,25.6,30.15,NNW,343,12.0,19.0,73,0.00,,,0.00,Wunderground v.1.15,2013-01-13 15:46:00,
2013-01-13 09:52:00,33.4,26.0,30.15,North,360,12.0,19.0,74,0.00,,,0.00,Wunderground v.1.15,2013-01-13 15:52:00,
2013-01-13 09:58:00,33.7,26.0,30.15,NW,321,10.0,19.0,73,0.00,,,0.00,Wunderground v.1.15,2013-01-13 15:58:00,
2013-01-13 10:04:00,34.2,26.4,30.16,NE,36,11.0,19.0,73,0.00,,,0.00,Wunderground v.1.15,2013-01-13 16:04:00,
2013-01-13 10:10:00,34.9,26.4,30.16,NNW,347,13.0,13.0,71,0.00,,,0.00,Wunderground v.1.15,2013-01-13 16:10:00,
2013-01-13 10:16:00,35.5,26.7,30.17,NNW,340,12.0,19.0,70,0.00,,,0.00,Wunderground v.1.15,2013-01-13 16:16:00,
2013-01-13 10:22:00,36.0,26.8,30.17,NNW,338,13.0,19.0,69,0.00,,,0.00,Wunderground v.1.15,2013-01-13 16:22:00,
2013-01-13 10:28:00,36.6,27.4,30.17,North,356,11.0,20.0,69,0.00,,,0.00,Wunderground v.1.15,2013-01-13 16:28:00,
2013-01-13 10:34:00,36.9,27.0,30.17,NNW,345,12.0,19.0,67,0.00,,,0.00,Wunderground v.1.15,2013-01-13 16:34:00,
2013-01-13 10:40:00,37.3,27.3,30.17,NW,322,13.0,13.0,67,0.00,,,0.00,Wunderground v.1.15,2013-01-13 16:40:00,
2013-01-13 10:46:00,37.4,27.4,30.17,NNW,328,12.0,19.0,67,0.00,,,0.00,Wunderground v.1.15,2013-01-13 16:46:00,
2013-01-13 10:52:00,37.7,27.7,30.16,NNW,338,12.0,19.0,67,0.00,,,0.00,Wunderground v.1.15,2013-01-13 16:52:00,
2013-01-13 10:58:00,38.2,28.2,30.16,NW,319,11.0,19.0,67,0.00,,,0.00,Wunderground v.1.15,2013-01-13 16:58:00,
2013-01-13 11:04:00,38.6,28.2,30.17,NW,323,10.0,19.0,66,0.00,,,0.00,Wunderground v.1.15,2013-01-13 17:04:00,
2013-01-13 11:10:00,39.3,28.9,30.17,NNW,347,9.0,9.0,66,0.00,,,0.00,Wunderground v.1.15,2013-01-13 17:10:00,
2013-01-13 11:16:00,39.2,28.4,30.16,WNW,295,10.0,19.0,65,0.00,,,0.00,Wunderground v.1.15,2013-01-13 17:16:00,
2013-01-13 11:22:00,39.3,28.1,30.16,North,351,11.0,19.0,64,0.00,,,0.00,Wunderground v.1.15,2013-01-13 17:22:00,
2013-01-13 11:28:00,39.7,28.5,30.16,North,360,11.0,19.0,64,0.00,,,0.00,Wunderground v.1.15,2013-01-13 17:28:00,
2013-01-13 11:34:00,40.2,29.4,30.16,NNW,335,11.0,13.0,65,0.00,,,0.00,Wunderground v.1.15,2013-01-13 17:34:00,
2013-01-13 11:40:00,40.0,28.4,30.15,North,3,12.0,12.0,63,0.00,,,0.00,Wunderground v.1.15,2013-01-13 17:40:00,
2013-01-13 11:46:00,40.6,29.0,30.15,North,350,11.0,19.0,63,0.00,,,0.00,Wunderground v.1.15,2013-01-13 17:46:00,
2013-01-13 11:52:00,41.0,29.4,30.15,NNW,341,10.0,19.0,63,0.00,,,0.00,Wunderground v.1.15,2013-01-13 17:52:00,
2013-01-13 11:58:00,41.1,29.5,30.14,NW,312,11.0,19.0,63,0.00,,,0.00,Wunderground v.1.15,2013-01-13 17:58:00,
2013-01-13 12:04:00,41.6,29.9,30.15,NNE,20,10.0,19.0,63,0.00,,,0.00,Wunderground v.1.15,2013-01-13 18:04:00,
2013-01-13 12:10:00,42.0,29.9,30.14,North,9,9.0,19.0,62,0.00,,,0.00,Wunderground v.1.15,2013-01-13 18:10:00,
2013-01-13 12:16:00,42.1,30.0,30.14,NW,321,10.0,19.0,62,0.00,,,0.00,Wunderground v.1.15,2013-01-13 18:16:00,
2013-01-13 12:22:00,42.5,30.0,30.13,WNW,292,11.0,19.0,61,0.00,,,0.00,Wunderground v.1.15,2013-01-13 18:22:00,
2013-01-13 12:28:00,42.4,29.9,30.13,WNW,293,11.0,19.0,61,0.00,,,0.00,Wunderground v.1.15,2013-01-13 18:28:00,
2013-01-13 12:34:00,42.8,29.9,30.13,NNW,339,11.0,19.0,60,0.00,,,0.00,Wunderground v.1.15,2013-01-13 18:34:00,
2013-01-13 12:40:00,43.1,30.1,30.13,NNW,348,11.0,11.0,60,0.00,,,0.00,Wunderground v.1.15,2013-01-13 18:40:00,
2013-01-13 12:46:00,43.3,30.3,30.13,NNW,332,11.0,19.0,60,0.00,,,0.00,Wunderground v.1.15,2013-01-13 18:46:00,
2013-01-13 12:52:00,43.7,30.7,30.13,NE,43,11.0,19.0,60,0.00,,,0.00,Wunderground v.1.15,2013-01-13 18:52:00,
2013-01-13 12:58:00,44.0,30.2,30.13,NNW,342,10.0,19.0,58,0.00,,,0.00,Wunderground v.1.15,2013-01-13 18:58:00,
2013-01-13 13:04:00,44.4,31.0,30.12,NNW,345,9.0,19.0,59,0.00,,,0.00,Wunderground v.1.15,2013-01-13 19:04:00,
2013-01-13 13:10:00,44.7,30.4,30.12,NNW,339,9.0,19.0,57,0.00,,,0.00,Wunderground v.1.15,2013-01-13 19:10:00,
2013-01-13 13:16:00,44.9,30.6,30.12,NNE,32,9.0,19.0,57,0.00,,,0.00,Wunderground v.1.15,2013-01-13 19:16:00,
2013-01-13 13:22:00,45.1,30.8,30.12,NE,34,9.0,13.0,57,0.00,,,0.00,Wunderground v.1.15,2013-01-13 19:22:00,
2013-01-13 13:28:00,44.8,30.5,30.12,North,352,11.0,19.0,57,0.00,,,0.00,Wunderground v.1.15,2013-01-13 19:28:00,
2013-01-13 13:34:00,44.7,30.4,30.12,North,356,11.0,19.0,57,0.00,,,0.00,Wunderground v.1.15,2013-01-13 19:34:00,
2013-01-13 13:40:00,45.2,31.3,30.12,NNE,26,10.0,10.0,58,0.00,,,0.00,Wunderground v.1.15,2013-01-13 19:40:00,
2013-01-13 13:46:00,45.0,30.2,30.11,North,6,11.0,19.0,56,0.00,,,0.00,Wunderground v.1.15,2013-01-13 19:46:00,
2013-01-13 13:52:00,45.2,30.9,30.11,NNW,334,13.0,19.0,57,0.00,,,0.00,Wunderground v.1.15,2013-01-13 19:52:00,
2013-01-13 13:58:00,45.4,31.0,30.11,ENE,60,11.0,19.0,57,0.00,,,0.00,Wunderground v.1.15,2013-01-13 19:58:00,
2013-01-13 14:04:00,45.9,31.5,30.11,North,6,10.0,19.0,57,0.00,,,0.00,Wunderground v.1.15,2013-01-13 20:04:00,
2013-01-13 14:10:00,45.7,30.9,30.11,North,359,9.0,9.0,56,0.00,,,0.00,Wunderground v.1.15,2013-01-13 20:10:00,
2013-01-13 14:16:00,45.7,30.4,30.11,North,360,11.0,19.0,55,0.00,,,0.00,Wunderground v.1.15,2013-01-13 20:16:00,
2013-01-13 14:22:00,45.7,30.9,30.11,North,9,11.0,19.0,56,0.00,,,0.00,Wunderground v.1.15,2013-01-13 20:22:00,
2013-01-13 14:28:00,45.7,30.4,30.12,NW,311,11.0,19.0,55,0.00,,,0.00,Wunderground v.1.15,2013-01-13 20:28:00,
2013-01-13 14:34:00,46.1,30.4,30.12,NNW,345,10.0,19.0,54,0.00,,,0.00,Wunderground v.1.15,2013-01-13 20:34:00,
2013-01-13 14:40:00,46.3,31.4,30.12,NNE,30,10.0,10.0,56,0.00,,,0.00,Wunderground v.1.15,2013-01-13 20:40:00,
2013-01-13 14:46:00,46.6,31.7,30.12,North,1,9.0,19.0,56,0.00,,,0.00,Wunderground v.1.15,2013-01-13 20:46:00,
2013-01-13 14:52:00,46.8,31.0,30.12,NNE,26,9.0,19.0,54,0.00,,,0.00,Wunderground v.1.15,2013-01-13 20:52:00,
2013-01-13 14:58:00,46.7,30.5,30.12,North,5,10.0,19.0,53,0.00,,,0.00,Wunderground v.1.15,2013-01-13 20:58:00,
2013-01-13 15:04:00,46.5,31.2,30.12,NNE,13,10.0,19.0,55,0.00,,,0.00,Wunderground v.1.15,2013-01-13 21:04:00,
2013-01-13 15:10:00,46.4,30.2,30.12,North,7,10.0,19.0,53,0.00,,,0.00,Wunderground v.1.15,2013-01-13 21:10:00,
2013-01-13 15:16:00,46.6,30.8,30.13,North,7,10.0,19.0,54,0.00,,,0.00,Wunderground v.1.15,2013-01-13 21:16:00,
2013-01-13 15:22:00,46.8,31.0,30.13,NNE,25,10.0,19.0,54,0.00,,,0.00,Wunderground v.1.15,2013-01-13 21:22:00,
2013-01-13 15:28:00,46.8,31.0,30.13,NNW,331,10.0,19.0,54,0.00,,,0.00,Wunderground v.1.15,2013-01-13 21:28:00,
2013-01-13 15:34:00,46.5,30.7,30.12,NNW,340,9.0,19.0,54,0.00,,,0.00,Wunderground v.1.15,2013-01-13 21:34:00,
2013-01-13 15:40:00,46.8,31.0,30.13,North,359,9.0,9.0,54,0.00,,,0.00,Wunderground v.1.15,2013-01-13 21:40:00,
2013-01-13 15:46:00,46.9,31.1,30.13,North,4,9.0,19.0,54,0.00,,,0.00,Wunderground v.1.15,2013-01-13 21:46:00,
2013-01-13 15:52:00,46.7,30.9,30.13,NNE,18,10.0,19.0,54,0.00,,,0.00,Wunderground v.1.15,2013-01-13 21:52:00,
2013-01-13 15:58:00,46.7,31.4,30.13,North,1,10.0,19.0,55,0.00,,,0.00,Wunderground v.1.15,2013-01-13 21:58:00,
2013-01-13 16:04:00,46.4,30.6,30.13,NE,34,10.0,19.0,54,0.00,,,0.00,Wunderground v.1.15,2013-01-13 22:04:00,
2013-01-13 16:10:00,46.4,31.1,30.14,NNE,26,9.0,9.0,55,0.00,,,0.00,Wunderground v.1.15,2013-01-13 22:10:00,
2013-01-13 16:16:00,46.7,31.8,30.14,NNE,18,7.0,19.0,56,0.00,,,0.00,Wunderground v.1.15,2013-01-13 22:16:00,
2013-01-13 16:22:00,46.4,31.1,30.14,NNE,25,8.0,19.0,55,0.00,,,0.00,Wunderground v.1.15,2013-01-13 22:22:00,
2013-01-13 16:28:00,46.3,31.4,30.14,NNE,13,9.0,19.0,56,0.00,,,0.00,Wunderground v.1.15,2013-01-13 22:28:00,
2013-01-13 16:34:00,46.1,31.7,30.14,North,6,8.0,19.0,57,0.00,,,0.00,Wunderground v.1.15,2013-01-13 22:34:00,
2013-01-13 16:40:00,45.9,31.5,30.14,North,6,8.0,8.0,57,0.00,,,0.00,Wunderground v.1.15,2013-01-13 22:40:00,
2013-01-13 16:46:00,45.4,31.0,30.14,NW,322,9.0,19.0,57,0.00,,,0.00,Wunderground v.1.15,2013-01-13 22:46:00,
2013-01-13 16:52:00,45.3,31.4,30.15,WNW,284,9.0,19.0,58,0.00,,,0.00,Wunderground v.1.15,2013-01-13 22:52:00,
2013-01-13 16:58:00,45.3,31.4,30.15,North,354,7.0,19.0,58,0.00,,,0.00,Wunderground v.1.15,2013-01-13 22:58:00,
2013-01-13 17:04:00,45.3,31.4,30.16,NNW,340,8.0,19.0,58,0.00,,,0.00,Wunderground v.1.15,2013-01-13 23:04:00,
2013-01-13 17:10:00,45.2,31.3,30.16,WNW,295,7.0,7.0,58,0.00,,,0.00,Wunderground v.1.15,2013-01-13 23:10:00,
2013-01-13 17:16:00,44.9,31.0,30.16,NNW,347,6.0,19.0,58,0.00,,,0.00,Wunderground v.1.15,2013-01-13 23:16:00,
2013-01-13 17:22:00,44.8,30.9,30.15,NNE,17,7.0,19.0,58,0.00,,,0.00,Wunderground v.1.15,2013-01-13 23:22:00,
2013-01-13 17:28:00,44.6,31.1,30.15,North,356,7.0,19.0,59,0.00,,,0.00,Wunderground v.1.15,2013-01-13 23:28:00,
2013-01-13 17:34:00,44.3,30.9,30.16,NE,49,6.0,19.0,59,0.00,,,0.00,Wunderground v.1.15,2013-01-13 23:34:00,
2013-01-13 17:40:00,44.0,30.2,30.16,NNE,33,6.0,6.0,58,0.00,,,0.00,Wunderground v.1.15,2013-01-13 23:40:00,
2013-01-13 17:46:00,43.6,29.8,30.16,North,1,6.0,19.0,58,0.00,,,0.00,Wunderground v.1.15,2013-01-13 23:46:00,
2013-01-13 17:52:00,43.1,28.9,30.16,North,354,7.0,8.0,57,0.00,,,0.00,Wunderground v.1.15,2013-01-13 23:52:00,
2013-01-13 17:58:00,42.5,28.8,30.16,NNE,29,6.0,19.0,58,0.00,,,0.00,Wunderground v.1.15,2013-01-13 23:58:00,
2013-01-13 18:04:00,42.1,28.8,30.17,North,360,6.0,19.0,59,0.00,,,0.00,Wunderground v.1.15,2013-01-14 00:04:00,
2013-01-13 18:10:00,41.6,28.7,30.16,NNE,15,5.0,5.0,60,0.00,,,0.00,Wunderground v.1.15,2013-01-14 00:10:00,
2013-01-13 18:16:00,41.2,28.8,30.17,ENE,58,4.0,19.0,61,0.00,,,0.00,Wunderground v.1.15,2013-01-14 00:16:00,
2013-01-13 18:22:00,40.8,29.2,30.17,North,349,4.0,19.0,63,0.00,,,0.00,Wunderground v.1.15,2013-01-14 00:22:00,
2013-01-13 18:28:00,40.4,29.2,30.17,NNE,22,4.0,19.0,64,0.00,,,0.00,Wunderground v.1.15,2013-01-14 00:28:00,
2013-01-13 18:34:00,40.1,28.9,30.17,North,11,4.0,19.0,64,0.00,,,0.00,Wunderground v.1.15,2013-01-14 00:34:00,
2013-01-13 18:40:00,39.9,29.1,30.17,NNE,19,4.0,19.0,65,0.00,,,0.00,Wunderground v.1.15,2013-01-14 00:40:00,
2013-01-13 18:46:00,39.9,28.7,30.17,NNE,32,5.0,19.0,64,0.00,,,0.00,Wunderground v.1.15,2013-01-14 00:46:00,
2013-01-13 18:52:00,39.7,28.5,30.17,NNE,16,5.0,6.0,64,0.00,,,0.00,Wunderground v.1.15,2013-01-14 00:52:00,
2013-01-13 18:58:00,39.7,28.5,30.17,NE,49,5.0,19.0,64,0.00,,,0.00,Wunderground v.1.15,2013-01-14 00:58:00,
2013-01-13 19:04:00,39.5,28.3,30.17,North,360,4.0,19.0,64,0.00,,,0.00,Wunderground v.1.15,2013-01-14 01:04:00,
2013-01-13 19:10:00,39.2,28.0,30.18,NNE,30,4.0,19.0,64,0.00,,,0.00,Wunderground v.1.15,2013-01-14 01:10:00,
2013-01-13 19:16:00,39.0,28.2,30.18,North,354,4.0,19.0,65,0.00,,,0.00,Wunderground v.1.15,2013-01-14 01:16:00,
2013-01-13 19:22:00,38.8,28.0,30.18,NNE,29,4.0,19.0,65,0.00,,,0.00,Wunderground v.1.15,2013-01-14 01:22:00,
2013-01-13 19:28:00,38.7,27.9,30.19,NE,36,4.0,19.0,65,0.00,,,0.00,Wunderground v.1.15,2013-01-14 01:28:00,
2013-01-13 19:34:00,38.5,28.1,30.19,NNE,33,4.0,7.0,66,0.00,,,0.00,Wunderground v.1.15,2013-01-14 01:34:00,
2013-01-13 19:40:00,38.3,27.9,30.20,NNE,32,5.0,5.0,66,0.00,,,0.00,Wunderground v.1.15,2013-01-14 01:40:00,
2013-01-13 19:46:00,38.2,27.8,30.19,North,11,5.0,19.0,66,0.00,,,0.00,Wunderground v.1.15,2013-01-14 01:46:00,
2013-01-13 19:52:00,38.2,27.8,30.20,NNE,32,5.0,19.0,66,0.00,,,0.00,Wunderground v.1.15,2013-01-14 01:52:00,
2013-01-13 19:58:00,38.2,27.8,30.20,NNE,26,5.0,19.0,66,0.00,,,0.00,Wunderground v.1.15,2013-01-14 01:58:00,
2013-01-13 20:04:00,38.0,27.6,30.20,NNE,19,5.0,19.0,66,0.00,,,0.00,Wunderground v.1.15,2013-01-14 02:04:00,
2013-01-13 20:10:00,38.0,27.3,30.20,NNE,29,6.0,6.0,65,0.00,,,0.00,Wunderground v.1.15,2013-01-14 02:10:00,
2013-01-13 20:16:00,37.9,27.2,30.21,NNE,28,6.0,19.0,65,0.00,,,0.00,Wunderground v.1.15,2013-01-14 02:16:00,
2013-01-13 20:22:00,37.8,27.1,30.21,NNE,20,6.0,19.0,65,0.00,,,0.00,Wunderground v.1.15,2013-01-14 02:22:00,
2013-01-13 20:28:00,37.5,27.2,30.21,NNE,20,5.0,19.0,66,0.00,,,0.00,Wunderground v.1.15,2013-01-14 02:28:00,
2013-01-13 20:34:00,37.4,27.1,30.21,North,349,6.0,19.0,66,0.00,,,0.00,Wunderground v.1.15,2013-01-14 02:34:00,
2013-01-13 20:40:00,37.1,26.8,30.22,North,5,6.0,6.0,66,0.00,,,0.00,Wunderground v.1.15,2013-01-14 02:40:00,
2013-01-13 20:46:00,37.0,27.1,30.22,NNE,32,6.0,19.0,67,0.00,,,0.00,Wunderground v.1.15,2013-01-14 02:46:00,
2013-01-13 20:52:00,36.8,26.9,30.21,NNE,19,6.0,19.0,67,0.00,,,0.00,Wunderground v.1.15,2013-01-14 02:52:00,
2013-01-13 20:58:00,36.7,27.1,30.21,NE,36,6.0,19.0,68,0.00,,,0.00,Wunderground v.1.15,2013-01-14 02:58:00,
2013-01-13 21:04:00,36.5,26.9,30.22,NNE,16,6.0,19.0,68,0.00,,,0.00,Wunderground v.1.15,2013-01-14 03:04:00,
2013-01-13 21:10:00,36.3,27.1,30.21,NNE,13,6.0,6.0,69,0.00,,,0.00,Wunderground v.1.15,2013-01-14 03:10:00,
2013-01-13 21:16:00,36.1,26.9,30.21,North,11,6.0,19.0,69,0.00,,,0.00,Wunderground v.1.15,2013-01-14 03:16:00,
2013-01-13 21:22:00,35.9,27.1,30.21,NNE,24,6.0,19.0,70,0.00,,,0.00,Wunderground v.1.15,2013-01-14 03:22:00,
2013-01-13 21:28:00,35.9,26.7,30.22,NE,38,7.0,19.0,69,0.00,,,0.00,Wunderground v.1.15,2013-01-14 03:28:00,
2013-01-13 21:34:00,35.8,26.6,30.22,NNE,26,8.0,9.0,69,0.00,,,0.00,Wunderground v.1.15,2013-01-14 03:34:00,
2013-01-13 21:40:00,35.7,26.5,30.22,NNE,18,8.0,8.0,69,0.00,,,0.00,Wunderground v.1.15,2013-01-14 03:40:00,
2013-01-13 21:46:00,35.6,26.4,30.22,North,356,7.0,19.0,69,0.00,,,0.00,Wunderground v.1.15,2013-01-14 03:46:00,
2013-01-13 21:52:00,35.4,26.2,30.22,NW,321,5.0,10.0,69,0.00,,,0.00,Wunderground v.1.15,2013-01-14 03:52:00,
2013-01-13 21:58:00,35.3,26.1,30.22,NNW,339,5.0,19.0,69,0.00,,,0.00,Wunderground v.1.15,2013-01-14 03:58:00,
2013-01-13 22:04:00,35.1,26.3,30.22,NNW,347,4.0,19.0,70,0.00,,,0.00,Wunderground v.1.15,2013-01-14 04:04:00,
2013-01-13 22:10:00,34.9,26.4,30.22,NE,49,5.0,19.0,71,0.00,,,0.00,Wunderground v.1.15,2013-01-14 04:10:00,
2013-01-13 22:16:00,34.8,26.4,30.22,NNW,343,7.0,19.0,71,0.00,,,0.00,Wunderground v.1.15,2013-01-14 04:16:00,
2013-01-13 22:22:00,34.6,26.5,30.21,NNE,13,7.0,19.0,72,0.00,,,0.00,Wunderground v.1.15,2013-01-14 04:22:00,
2013-01-13 22:28:00,34.5,26.4,30.21,North,349,8.0,19.0,72,0.00,,,0.00,Wunderground v.1.15,2013-01-14 04:28:00,
2013-01-13 22:34:00,34.4,26.3,30.21,North,11,8.0,19.0,72,0.00,,,0.00,Wunderground v.1.15,2013-01-14 04:34:00,
2013-01-13 22:40:00,34.1,26.3,30.20,NNW,339,7.0,7.0,73,0.00,,,0.00,Wunderground v.1.15,2013-01-14 04:40:00,
2013-01-13 22:46:00,33.8,26.4,30.20,North,359,7.0,19.0,74,0.00,,,0.00,Wunderground v.1.15,2013-01-14 04:46:00,
2013-01-13 22:52:00,33.5,26.4,30.21,NW,315,7.0,8.0,75,0.00,,,0.00,Wunderground v.1.15,2013-01-14 04:52:00,
2013-01-13 22:58:00,33.3,26.2,30.20,North,5,8.0,19.0,75,0.00,,,0.00,Wunderground v.1.15,2013-01-14 04:58:00,
2013-01-13 23:00:00,33.3,26.2,30.20,North,351,8.0,19.0,75,0.00,,,0.00,Wunderground v.1.15,2013-01-14 05:00:00,
2013-01-13 23:02:00,33.3,26.2,30.20,NNE,28,9.0,19.0,75,0.00,,,0.00,Wunderground v.1.15,2013-01-14 05:02:00,
2013-01-13 23:08:00,33.2,25.8,30.20,North,8,9.0,19.0,74,0.00,,,0.00,Wunderground v.1.15,2013-01-14 05:08:00,
2013-01-13 23:14:00,33.3,25.9,30.20,NNE,13,9.0,19.0,74,0.00,,,0.00,Wunderground v.1.15,2013-01-14 05:14:00,
2013-01-13 23:16:00,33.2,25.5,30.20,North,11,10.0,19.0,73,0.00,,,0.00,Wunderground v.1.15,2013-01-14 05:16:00,
2013-01-13 23:22:00,33.2,25.5,30.20,NNE,33,10.0,19.0,73,0.00,,,0.00,Wunderground v.1.15,2013-01-14 05:22:00,
2013-01-13 23:28:00,33.1,25.1,30.20,NNE,26,10.0,19.0,72,0.00,,,0.00,Wunderground v.1.15,2013-01-14 05:28:00,
2013-01-13 23:34:00,33.1,25.1,30.20,NNE,25,11.0,19.0,72,0.00,,,0.00,Wunderground v.1.15,2013-01-14 05:34:00,
2013-01-13 23:40:00,32.9,25.2,30.20,North,357,11.0,11.0,73,0.00,,,0.00,Wunderground v.1.15,2013-01-14 05:40:00,
2013-01-13 23:46:00,32.7,25.3,30.20,NNE,23,11.0,19.0,74,0.00,,,0.00,Wunderground v.1.15,2013-01-14 05:46:00,
2013-01-13 23:52:00,32.4,25.0,30.21,North,359,9.0,19.0,74,0.00,,,0.00,Wunderground v.1.15,2013-01-14 05:52:00,
2013-01-13 23:58:00,32.3,24.9,30.21,North,6,9.0,19.0,74,0.00,,,0.00,Wunderground v.1.15,2013-01-14 05:58:00,